• In Romania
  • List of Countries
  • For 7 days
  • Water Temperature
  • Satellite Maps
  • Weather Map
  • Weather Widgets
  • user-avatar
    Login

    Hourly Weather Jablanac

    Today, 26 September, Wednesday

    Time Temperature Precipitation Wind Pressure Humidity
    00:00 +6°C° 0 mm 8 mps 771 mmHg 63%
    01:00 +6°C° 0 mm 8 mps 772 mmHg 65%
    02:00 +6°C° 0 mm 7 mps 772 mmHg 68%
    03:00 +5°C° 0 mm 7 mps 772 mmHg 71%
    04:00 +4°C° 0 mm 6 mps 772 mmHg 74%
    05:00 +5°C° 0 mm 6 mps 772 mmHg 74%
    06:00 +5°C° 0 mm 6 mps 772 mmHg 73%
    07:00 +5°C° 0 mm 6 mps 772 mmHg 72%
    08:00 +8°C° 0 mm 5 mps 772 mmHg 65%
    09:00 +10°C° 0 mm 5 mps 772 mmHg 57%
    10:00 +13°C° 0 mm 5 mps 772 mmHg 50%
    11:00 +14°C° 0 mm 5 mps 771 mmHg 47%
    12:00 +15°C° 0 mm 4 mps 771 mmHg 44%
    13:00 +17°C° 0 mm 4 mps 771 mmHg 41%
    14:00 +17°C° 0 mm 4 mps 770 mmHg 42%
    15:00 +17°C° 0 mm 3 mps 770 mmHg 43%
    16:00 +17°C° 0 mm 3 mps 770 mmHg 44%
    17:00 +14°C° 0 mm 3 mps 770 mmHg 52%
    18:00 +12°C° 0 mm 3 mps 770 mmHg 59%
    19:00 +10°C° 0 mm 3 mps 770 mmHg 67%
    20:00 +10°C° 0 mm 3 mps 770 mmHg 67%
    21:00 +9°C° 0 mm 3 mps 770 mmHg 67%
    22:00 +9°C° 0 mm 3 mps 770 mmHg 67%
    23:00 +9°C° 0 mm 2 mps 770 mmHg 64%

    Tomorrow, 27 September, Thursday

    Time Temperature Precipitation Wind Pressure Humidity
    00:00 +9°C° 0 mm 2 mps 769 mmHg 61%
    01:00 +9°C° 0 mm 2 mps 769 mmHg 59%
    02:00 +9°C° 0 mm 2 mps 769 mmHg 56%
    03:00 +9°C° 0 mm 2 mps 768 mmHg 53%
    04:00 +9°C° 0 mm 2 mps 768 mmHg 50%
    05:00 +10°C° 0 mm 2 mps 768 mmHg 49%
    06:00 +10°C° 0 mm 2 mps 768 mmHg 47%
    07:00 +11°C° 0 mm 3 mps 768 mmHg 46%
    08:00 +15°C° 0 mm 2 mps 767 mmHg 41%
    09:00 +18°C° 0 mm 2 mps 767 mmHg 36%
    10:00 +20°C° 0 mm 2 mps 767 mmHg 31%
    11:00 +21°C° 0 mm 2 mps 767 mmHg 29%
    12:00 +23°C° 0 mm 2 mps 766 mmHg 28%
    13:00 +24°C° 0 mm 3 mps 766 mmHg 27%
    14:00 +24°C° 0 mm 3 mps 765 mmHg 31%
    15:00 +22°C° 0 mm 3 mps 765 mmHg 34%
    16:00 +22°C° 0 mm 3 mps 764 mmHg 38%
    17:00 +19°C° 0 mm 3 mps 764 mmHg 43%
    18:00 +17°C° 0 mm 4 mps 764 mmHg 48%
    19:00 +14°C° 0 mm 4 mps 764 mmHg 53%
    20:00 +13°C° 0 mm 4 mps 763 mmHg 52%
    21:00 +13°C° 0 mm 4 mps 763 mmHg 52%
    22:00 +13°C° 0 mm 4 mps 763 mmHg 51%
    23:00 +12°C° 0 mm 3 mps 762 mmHg 51%

    Day after tomorrow, 28 September, Friday

    Time Temperature Precipitation Wind Pressure Humidity
    00:00 +12°C° 0 mm 3 mps 762 mmHg 51%
    01:00 +12°C° 0 mm 3 mps 762 mmHg 51%
    02:00 +12°C° 0 mm 3 mps 761 mmHg 51%
    03:00 +13°C° 0 mm 2 mps 761 mmHg 50%
    04:00 +13°C° 0 mm 2 mps 760 mmHg 50%
    05:00 +13°C° 0 mm 2 mps 760 mmHg 50%
    06:00 +13°C° 0 mm 2 mps 759 mmHg 50%
    07:00 +14°C° 0 mm 2 mps 759 mmHg 50%
    08:00 +16°C° 0 mm 2 mps 759 mmHg 45%
    09:00 +19°C° 0 mm 2 mps 759 mmHg 40%
    10:00 +23°C° 0 mm 2 mps 758 mmHg 35%
    11:00 +24°C° 0 mm 2 mps 758 mmHg 35%
    12:00 +25°C° 0 mm 2 mps 757 mmHg 35%
    13:00 +26°C° 0 mm 2 mps 757 mmHg 35%
    14:00 +25°C° 0 mm 2 mps 756 mmHg 38%
    15:00 +25°C° 0 mm 3 mps 756 mmHg 41%
    16:00 +24°C° 0 mm 3 mps 755 mmHg 44%
    17:00 +21°C° 0 mm 3 mps 755 mmHg 50%
    18:00 +19°C° 0 mm 3 mps 755 mmHg 55%
    19:00 +15°C° 0 mm 4 mps 755 mmHg 61%
    20:00 +15°C° 0 mm 4 mps 756 mmHg 60%
    21:00 +15°C° 0 mm 4 mps 756 mmHg 59%
    22:00 +14°C° 0 mm 4 mps 756 mmHg 58%
    23:00 +14°C° 0 mm 4 mps 756 mmHg 58%

    29 September, Saturday

    Time Temperature Precipitation Wind Pressure Humidity
    00:00 +14°C° 0 mm 4 mps 756 mmHg 58%
    01:00 +14°C° 0 mm 5 mps 756 mmHg 58%
    02:00 +13°C° 0 mm 5 mps 756 mmHg 59%
    03:00 +13°C° 0 mm 6 mps 756 mmHg 60%
    04:00 +13°C° 0 mm 6 mps 756 mmHg 61%
    05:00 +12°C° 0 mm 7 mps 756 mmHg 64%
    06:00 +12°C° 0 mm 7 mps 757 mmHg 67%
    07:00 +13°C° 0 mm 8 mps 757 mmHg 71%
    08:00 +15°C° 0 mm 8 mps 757 mmHg 70%
    09:00 +16°C° 0 mm 9 mps 758 mmHg 70%
    10:00 +17°C° 0 mm 9 mps 758 mmHg 70%
    11:00 +17°C° 0 mm 9 mps 758 mmHg 67%
    12:00 +17°C° 0 mm 9 mps 758 mmHg 64%
    13:00 +18°C° 0 mm 9 mps 759 mmHg 61%
    14:00 +17°C° 0 mm 9 mps 759 mmHg 60%
    15:00 +17°C° 0 mm 9 mps 759 mmHg 58%
    16:00 +16°C° 0 mm 8 mps 759 mmHg 57%
    17:00 +16°C° 0 mm 9 mps 760 mmHg 57%
    18:00 +15°C° 0 mm 9 mps 760 mmHg 56%
    19:00 +13°C° 0 mm 9 mps 761 mmHg 56%
    20:00 +12°C° 0 mm 9 mps 761 mmHg 56%
    21:00 +11°C° 0 mm 9 mps 762 mmHg 56%
    22:00 +11°C° 0 mm 9 mps 762 mmHg 56%
    23:00 +10°C° 0 mm 9 mps 762 mmHg 60%

    30 September, Sunday

    Time Temperature Precipitation Wind Pressure Humidity
    00:00 +9°C° 0 mm 8 mps 762 mmHg 63%
    01:00 +9°C° 0 mm 8 mps 762 mmHg 66%
    02:00 +8°C° 0 mm 7 mps 761 mmHg 68%
    03:00 +8°C° 0 mm 7 mps 761 mmHg 71%
    04:00 +8°C° 0 mm 7 mps 761 mmHg 73%
    05:00 +8°C° 0 mm 7 mps 761 mmHg 74%
    06:00 +8°C° 0 mm 6 mps 761 mmHg 75%
    07:00 +8°C° 0 mm 6 mps 761 mmHg 76%
    08:00 +10°C° 0 mm 6 mps 761 mmHg 68%
    09:00 +11°C° 0 mm 6 mps 761 mmHg 61%
    10:00 +14°C° 0 mm 6 mps 761 mmHg 53%
    11:00 +15°C° 0 mm 6 mps 760 mmHg 50%
    12:00 +16°C° 0 mm 5 mps 760 mmHg 46%
    13:00 +17°C° 0 mm 5 mps 759 mmHg 43%
    14:00 +17°C° 0 mm 4 mps 759 mmHg 44%
    15:00 +17°C° 0 mm 4 mps 759 mmHg 44%
    16:00 +17°C° 0 mm 4 mps 758 mmHg 44%
    17:00 +14°C° 0 mm 4 mps 758 mmHg 50%
    18:00 +12°C° 0 mm 4 mps 759 mmHg 56%
    19:00 +10°C° 0 mm 4 mps 759 mmHg 62%
    20:00 +10°C° 0 mm 4 mps 759 mmHg 62%
    21:00 +8°C° 0 mm 4 mps 759 mmHg 63%
    22:00 +9°C° 0 mm 3 mps 759 mmHg 63%
    23:00 +9°C° 0 mm 3 mps 758 mmHg 65%

    1 October, Monday

    Time Temperature Precipitation Wind Pressure Humidity
    00:00 +9°C° 0 mm 3 mps 758 mmHg 66%
    01:00 +8°C° 0 mm 3 mps 758 mmHg 67%
    02:00 +8°C° 0 mm 2 mps 757 mmHg 68%
    03:00 +8°C° 0 mm 2 mps 757 mmHg 69%
    04:00 +8°C° 0 mm 2 mps 756 mmHg 70%
    05:00 +9°C° 0 mm 2 mps 756 mmHg 69%
    06:00 +9°C° 0 mm 2 mps 756 mmHg 69%
    07:00 +11°C° 0 mm 1 mps 756 mmHg 68%
    08:00 +14°C° 0 mm 1 mps 756 mmHg 60%
    09:00 +18°C° 0 mm 1 mps 755 mmHg 53%
    10:00 +21°C° 0 mm 1 mps 755 mmHg 45%
    11:00 +22°C° 0 mm 1 mps 755 mmHg 45%
    12:00 +23°C° 0 mm 1 mps 754 mmHg 44%
    13:00 +23°C° 0 mm 1 mps 754 mmHg 44%
    14:00 +22°C° 0 mm 1 mps 754 mmHg 47%
    15:00 +22°C° 0 mm 1 mps 753 mmHg 51%
    16:00 +21°C° 0 mm 1 mps 753 mmHg 55%
    17:00 +19°C° 0 mm 1 mps 753 mmHg 63%
    18:00 +16°C° 0 mm 1 mps 753 mmHg 72%
    19:00 +14°C° 0 mm 1 mps 754 mmHg 81%
    20:00 +14°C° 0 mm 1 mps 754 mmHg 83%
    21:00 +13°C° 0 mm 1 mps 754 mmHg 85%
    22:00 +13°C° 0 mm 2 mps 754 mmHg 87%
    23:00 +13°C° 0 mm 2 mps 754 mmHg 86%
    Show more